sat.trackr.live / text

‹ back to catalog

STARLINK-6315

NORAD 57236 · 2023-094U

PAYLOAD ACTIVE UNKNOWN

§ Identity

Operator
Country
US
Launch date
2023-07-07
Launch site
AFWTR
Launch vehicle
Mass (kg)
RCS (m²)

Purposes: comms

External: N2YO · Heavens-Above · Gunter

§ Orbital elements

Epoch: 2026-09-20T13:41:12.650784Z

Period
94.27 min
Inclination
43.0044°
Eccentricity
0.0001336
Mean motion
15.27576643 rev/d
Perigee alt
482.1 km
Apogee alt
484.0 km
Semi-major
6,861.2 km
B*
-9.8025e-6
RAAN
359.3833°
Arg perigee
269.3014°
Mean anomaly
90.7684°
Rev number
17,704

§ Raw data

STARLINK-63151 57236U 23094U   26263.57028531 -.00000532  00000+0 -98025-5 0  99912 57236  43.0044 359.3833 0001336 269.3014  90.7684 15.27576643177041

JSON: /api/v1/satellites/57236 · /tle

For live sub-satellite position, see the globe view (requires WebGL).

§ Visibility from observer

Set your observer location to see the next 7 days of passes ≥ 10°. The values pass through the URL so the page stays shareable.

No JS? Fill the form by hand. The geolocation button needs JavaScript.